Location: Haulchin
(50.3172°N, 3.4360°E)
Time: 19:24:22
(UTC+00:00)

Meteor 1-4 Rocket - Pass Details

Date: 23 May 2024
Orbit: 358 x 379 km, 81.2° (Epoch: 16 June)

Event Time Altitude Azimuth Distance (km) Brightness Sun altitude
Exits shadow 00:53:28 26° 120° (ESE) 761 3.4 -17.4°
Maximum altitude 00:54:06 28° 95° (E) 709 3.5 -17.3°
Drops below altitude 10° 00:56:41 10° 33° (NNE) 1,356 6.0 -17.2°
Sets 00:58:48 0° 21° (NNE) 2,212 7.7 -17.1°
